Location: Albany
(35.0170°S, 117.8920°E)
Time: 17:33:54
(UTC+08:00)

Explorer 11/Cluster Stage 4 - Pass Details

Date: 30 January 2021
Orbit: 467 x 1257 km, 28.8° (Epoch: 02 March)

Event Time Altitude Azimuth Distance (km) Brightness Sun altitude
Rises 05:47:15 0° 305° (NW) 4,164 9.6 3.3°
Reaches altitude 10° 05:50:31 10° 313° (NW) 3,147 9.1 3.9°
Maximum altitude 05:57:33 36° 15° (NNE) 1,670 8.3 5.3°
Drops below altitude 10° 06:03:40 10° 79° (E) 2,723 10.6 6.5°
Sets 06:06:18 0° 87° (E) 3,547 11.6 7.0°
